Tracking 29892 objects as of 21-Nov-2024
HD Live streaming from Space Station
objects crossing your sky now

STARLINK-11153

Track STARLINK-11153 now!
10-day predictions
STARLINK-11153 is classified as:


NORAD ID: 60067
Int'l Code: 2024-113J
Perigee: 365.6 km
Apogee: 368.4 km
Inclination: 53.2 °
Period: 91.7 minutes
Semi major axis: 6737 km
RCS: Unknown
Launch date: June 19, 2024
Source: United States (US)
Launch site: AIR FORCE WESTERN TEST RANGE (AFWTR)
Your satellite tracking list
Your tracking list is empty




NASA's NSSDC Master Catalog

Two Line Element Set (TLE):
1 60067U 24113J   24325.53191518  .00022239  00000-0  18818-3 0  9996
2 60067  53.1560   9.0550 0002070  91.0288 269.0966 15.69676416 25384
Source of the keplerian elements: AFSPC